Вернуться в каталог

CENTISPACE-1 S14

АктивенНавигацияLEO
NORAD 62583·PAYLOAD·🇨🇳 China

Запущен Jan 13, 2025 с Yellow Sea Launch Area

Loading…

Ближайшие Пролёты (ближайшие 24 часа)

TLE

СвежийSource: Space-Track

Эпоха: Sep 14, 2026, 14:59 UTC

1 62583U 25007J   26257.62454327 -.00000052  00000-0  83480-4 0  9998
2 62583  54.9862 339.8428 0009066 267.3039  92.6879 13.80623039 87065

Отслеживайте CENTISPACE-1 S14 в реальном времени с AllMySat

Download on the App Store